Stündliche Wetter 2-e Itkulovo

Heute, 23 Juni, Mittwoch

Zeit Temperatur Niederschläge Wind Luftdruck Luftfeuchtigkeit
00:00 +18°C° 0 mm 2 m/S 717 mmHg 86%
01:00 +18°C° 0 mm 2 m/S 716 mmHg 87%
02:00 +18°C° 0 mm 2 m/S 716 mmHg 87%
03:00 +18°C° 0 mm 2 m/S 716 mmHg 87%
04:00 +18°C° 0 mm 2 m/S 716 mmHg 87%
05:00 +19°C° 0 mm 3 m/S 716 mmHg 82%
06:00 +21°C° 0 mm 4 m/S 716 mmHg 76%
07:00 +23°C° 0 mm 4 m/S 716 mmHg 70%
08:00 +25°C° 0 mm 5 m/S 716 mmHg 62%
09:00 +27°C° 0 mm 5 m/S 716 mmHg 53%
10:00 +29°C° 0 mm 6 m/S 716 mmHg 44%
11:00 +28°C° 0 mm 6 m/S 716 mmHg 45%
12:00 +28°C° 0 mm 6 m/S 715 mmHg 46%
13:00 +28°C° 0 mm 5 m/S 715 mmHg 47%
14:00 +27°C° 0 mm 5 m/S 715 mmHg 49%
15:00 +27°C° 0 mm 5 m/S 715 mmHg 51%
16:00 +27°C° 0 mm 4 m/S 715 mmHg 53%
17:00 +25°C° 1 mm 4 m/S 715 mmHg 66%
18:00 +21°C° 1 mm 3 m/S 715 mmHg 79%
19:00 +19°C° 1 mm 2 m/S 715 mmHg 92%
20:00 +18°C° 0.2 mm 2 m/S 715 mmHg 94%
21:00 +17°C° 0.2 mm 2 m/S 715 mmHg 96%
22:00 +16°C° 0.2 mm 2 m/S 716 mmHg 97%
23:00 +16°C° 0.2 mm 1 m/S 716 mmHg 97%

Morgen, 24 Juni, Donnerstag

Zeit Temperatur Niederschläge Wind Luftdruck Luftfeuchtigkeit
00:00 +16°C° 0.2 mm 1 m/S 716 mmHg 97%
01:00 +16°C° 0.2 mm 1 m/S 716 mmHg 97%
02:00 +16°C° 0.1 mm 1 m/S 716 mmHg 97%
03:00 +15°C° 0.1 mm 1 m/S 716 mmHg 97%
04:00 +15°C° 0.1 mm 1 m/S 716 mmHg 97%
05:00 +15°C° 0 mm 1 m/S 716 mmHg 95%
06:00 +15°C° 0 mm 1 m/S 716 mmHg 93%
07:00 +15°C° 0 mm 2 m/S 716 mmHg 92%
08:00 +16°C° 0 mm 1 m/S 717 mmHg 88%
09:00 +18°C° 0 mm 1 m/S 717 mmHg 83%
10:00 +19°C° 0 mm 1 m/S 717 mmHg 79%
11:00 +20°C° 0 mm 1 m/S 717 mmHg 72%
12:00 +20°C° 0 mm 0 m/S 717 mmHg 64%
13:00 +22°C° 0 mm 0 m/S 717 mmHg 56%
14:00 +22°C° 0 mm 0 m/S 717 mmHg 53%
15:00 +23°C° 0 mm 0 m/S 717 mmHg 51%
16:00 +25°C° 0 mm 1 m/S 717 mmHg 48%
17:00 +25°C° 0 mm 1 m/S 716 mmHg 54%
18:00 +24°C° 0 mm 1 m/S 716 mmHg 60%
19:00 +23°C° 0 mm 1 m/S 716 mmHg 65%
20:00 +21°C° 0 mm 1 m/S 716 mmHg 71%
21:00 +19°C° 0 mm 1 m/S 715 mmHg 76%
22:00 +18°C° 0 mm 1 m/S 715 mmHg 81%
23:00 +16°C° 0 mm 1 m/S 715 mmHg 83%

übermorgen, 25 Juni, Freitag

Zeit Temperatur Niederschläge Wind Luftdruck Luftfeuchtigkeit
00:00 +16°C° 0 mm 1 m/S 715 mmHg 85%
01:00 +15°C° 0 mm 1 m/S 715 mmHg 87%
02:00 +15°C° 0 mm 1 m/S 714 mmHg 88%
03:00 +15°C° 0 mm 1 m/S 714 mmHg 89%
04:00 +15°C° 0 mm 1 m/S 714 mmHg 90%
05:00 +18°C° 0 mm 1 m/S 714 mmHg 84%
06:00 +18°C° 0 mm 2 m/S 714 mmHg 77%
07:00 +20°C° 0 mm 2 m/S 714 mmHg 70%
08:00 +23°C° 0 mm 2 m/S 714 mmHg 62%
09:00 +25°C° 0 mm 2 m/S 714 mmHg 55%
10:00 +26°C° 0 mm 3 m/S 714 mmHg 47%
11:00 +27°C° 0 mm 3 m/S 714 mmHg 45%
12:00 +28°C° 0 mm 2 m/S 714 mmHg 43%
13:00 +29°C° 0 mm 2 m/S 714 mmHg 42%
14:00 +29°C° 0 mm 2 m/S 714 mmHg 46%
15:00 +28°C° 0 mm 2 m/S 714 mmHg 49%
16:00 +28°C° 0 mm 2 m/S 713 mmHg 53%
17:00 +27°C° 0 mm 2 m/S 713 mmHg 58%
18:00 +26°C° 0 mm 2 m/S 713 mmHg 63%
19:00 +25°C° 0 mm 1 m/S 713 mmHg 68%
20:00 +24°C° 0 mm 1 m/S 713 mmHg 75%
21:00 +21°C° 0 mm 2 m/S 713 mmHg 81%
22:00 +19°C° 0 mm 2 m/S 713 mmHg 87%
23:00 +20°C° 0 mm 1 m/S 712 mmHg 88%

26 Juni, Samstag

Zeit Temperatur Niederschläge Wind Luftdruck Luftfeuchtigkeit
00:00 +20°C° 0 mm 1 m/S 712 mmHg 89%
01:00 +20°C° 0 mm 1 m/S 712 mmHg 89%
02:00 +19°C° 0 mm 1 m/S 712 mmHg 90%
03:00 +19°C° 0 mm 1 m/S 712 mmHg 90%
04:00 +19°C° 0 mm 1 m/S 711 mmHg 91%
05:00 +19°C° 0 mm 2 m/S 712 mmHg 86%
06:00 +21°C° 0 mm 2 m/S 712 mmHg 81%
07:00 +24°C° 0 mm 3 m/S 712 mmHg 76%
08:00 +25°C° 0 mm 3 m/S 712 mmHg 68%
09:00 +27°C° 0 mm 3 m/S 712 mmHg 60%
10:00 +29°C° 0 mm 4 m/S 712 mmHg 53%
11:00 +29°C° 0 mm 4 m/S 712 mmHg 51%
12:00 +30°C° 0 mm 4 m/S 712 mmHg 49%
13:00 +30°C° 0 mm 4 m/S 712 mmHg 47%
14:00 +30°C° 0 mm 4 m/S 712 mmHg 49%
15:00 +29°C° 0 mm 4 m/S 712 mmHg 51%
16:00 +29°C° 0 mm 4 m/S 712 mmHg 54%
17:00 +28°C° 0 mm 4 m/S 711 mmHg 57%
18:00 +27°C° 0 mm 3 m/S 711 mmHg 60%
19:00 +26°C° 0 mm 3 m/S 711 mmHg 64%
20:00 +24°C° 0.1 mm 2 m/S 711 mmHg 71%
21:00 +21°C° 0.1 mm 2 m/S 711 mmHg 79%
22:00 +20°C° 0.1 mm 2 m/S 711 mmHg 86%
23:00 +19°C° 0 mm 2 m/S 711 mmHg 87%

27 Juni, Sonntag

Zeit Temperatur Niederschläge Wind Luftdruck Luftfeuchtigkeit
00:00 +19°C° 0 mm 2 m/S 711 mmHg 88%
01:00 +20°C° 0 mm 1 m/S 711 mmHg 89%
02:00 +19°C° 0 mm 1 m/S 711 mmHg 90%
03:00 +19°C° 0 mm 1 m/S 711 mmHg 90%
04:00 +18°C° 0 mm 1 m/S 711 mmHg 91%
05:00 +20°C° 0 mm 1 m/S 711 mmHg 86%
06:00 +20°C° 0 mm 2 m/S 711 mmHg 82%
07:00 +23°C° 0 mm 2 m/S 712 mmHg 77%
08:00 +24°C° 0 mm 2 m/S 712 mmHg 68%
09:00 +26°C° 0 mm 3 m/S 712 mmHg 58%
10:00 +27°C° 0 mm 3 m/S 712 mmHg 48%
11:00 +28°C° 0 mm 3 m/S 712 mmHg 44%
12:00 +29°C° 0 mm 3 m/S 712 mmHg 41%
13:00 +30°C° 0 mm 3 m/S 712 mmHg 37%
14:00 +30°C° 0 mm 3 m/S 712 mmHg 38%
15:00 +30°C° 0 mm 3 m/S 712 mmHg 38%
16:00 +30°C° 0 mm 3 m/S 712 mmHg 39%
17:00 +28°C° 0 mm 3 m/S 712 mmHg 47%
18:00 +27°C° 0 mm 3 m/S 712 mmHg 56%
19:00 +25°C° 0 mm 3 m/S 712 mmHg 64%
20:00 +22°C° 0 mm 3 m/S 712 mmHg 70%
21:00 +20°C° 0 mm 3 m/S 712 mmHg 75%
22:00 +18°C° 0 mm 3 m/S 713 mmHg 81%
23:00 +17°C° 0 mm 2 m/S 712 mmHg 84%

28 Juni, Montag

Zeit Temperatur Niederschläge Wind Luftdruck Luftfeuchtigkeit
00:00 +16°C° 0 mm 2 m/S 712 mmHg 86%
01:00 +15°C° 0 mm 2 m/S 712 mmHg 89%
02:00 +15°C° 0 mm 2 m/S 712 mmHg 88%
03:00 +15°C° 0 mm 1 m/S 713 mmHg 88%
04:00 +15°C° 0 mm 1 m/S 713 mmHg 87%
05:00 +16°C° 0 mm 1 m/S 713 mmHg 81%
06:00 +19°C° 0 mm 1 m/S 713 mmHg 75%
07:00 +20°C° 0 mm 1 m/S 713 mmHg 68%
08:00 +21°C° 0 mm 1 m/S 714 mmHg 66%
09:00 +22°C° 0 mm 1 m/S 714 mmHg 63%
10:00 +23°C° 0 mm 1 m/S 714 mmHg 60%
11:00 +24°C° 0 mm 1 m/S 714 mmHg 57%
12:00 +25°C° 0 mm 1 m/S 714 mmHg 53%
13:00 +27°C° 0 mm 1 m/S 714 mmHg 49%
14:00 +27°C° 0 mm 1 m/S 714 mmHg 49%
15:00 +26°C° 0 mm 1 m/S 714 mmHg 49%
16:00 +26°C° 0 mm 1 m/S 713 mmHg 49%
17:00 +26°C° 0 mm 1 m/S 713 mmHg 53%
18:00 +25°C° 0 mm 1 m/S 713 mmHg 57%
19:00 +25°C° 0 mm 1 m/S 713 mmHg 62%
20:00 +23°C° 0 mm 1 m/S 713 mmHg 64%
21:00 +22°C° 0 mm 1 m/S 713 mmHg 66%
22:00 +20°C° 0 mm 1 m/S 713 mmHg 68%
23:00 +19°C° 0 mm 1 m/S 713 mmHg 71%
Mehr zeigen

Wir brauchen deine Erlaubnis

Meteoprog und unser Service Anbieter werden persönliche Daten aufbewahren, so wie Cookies, Geräte Bezeichnung oder ähnliche Technologien von deinem Gerät und Prozess, so wie Persönliche Daten Inhalte und Werbungen, genauso wie social Media und den Verkehr zu analysieren.

  • Aufbewahrung und/oder Zugang zu deiner Geräte Informationen.

    Cookies, Geräte Bezeichnung oder andere Informationen, können aufbewahrt oder Zugang zu deinem Gerät erhalten, für den Grund, der oben angegeben wird.

  • Personalisierte Werbung und Inhalte, Messungen, Einblick in das Publikum und Produkt Entwicklung.

    Werbungen und Inhalte können personalisiert werden, basierend auf ein Profil. Mehr Daten können besser personalisierte Werbungen und Inhalte hinzufügen. Werbung und Inhalte können gezeigt und gemessen werden. Einblicke über das Publikum, welche die Werbung gesehen haben und den Inhalt, können abgeleitet werden. So wie Daten können genutzt werden, um es zu verbessern oder die Benutzer Erfahrung zu verbessern das System und die Software.

Wenn du “Ich stimme zu” klickst, erlaubst du uns, die Cookies zu benutzen die Geräte Bezeichnung, den Web oder ähnliche Technologien zu benutzen. Deine Settings, können in deinem Gerät bei deinem Browser geändert werden.

Für den bestimmten Zweck, berechtigten Interessen beruhen darauf, mehr als auf den Inhalt. Du kannst mehr darüber in unseren Privaten und Cookie Politik lesen.